Regional Weather Roundup
Issued by NWS

Home | Current Version | Previous Version | Text Only | Print | Product List | Glossary On
Versions: 1 2 3 4 5 6 7 8 9 10 11 12 13 14 15 16 17 18 19 20 21 22 23 24 25 26 27 28 29 30 31 32 33 34 35 36 37 38 39 40 41 42 43 44 45 46 47 48 49 50
493
ASUS44 KBMX 061510
RWRAL

ALABAMA REGIONAL WEATHER ROUNDUP
NATIONAL WEATHER SERVICE BIRMINGHAM AL
900 AM CST SAT FEB 06 2016

NOTE: "FAIR" INDICATES FEW OR NO CLOUDS BELOW 12,000 FEET
WITH NO SIGNIFICANT WEATHER AND/OR OBSTRUCTIONS TO VISIBILITY.

THE REMARK "TC" DENOTES TEMPERATURE IN DEGREES CELSIUS.

ALZ001>011-014-016>018-020-061600-
NORTH ALABAMA

CITY           SKY/WX    TMP DP  RH WIND       PRES   REMARKS
MUSCLE SHOALS  MOSUNNY   37  30  75 CALM      30.42R
HUNTSVILLE     PTSUNNY   42  26  53 NE3       30.40S
DECATUR        MOSUNNY   35  29  78 CALM      30.42R
HALEYVILLE     FAIR      38  24  57 CALM      30.40S
GADSDEN        MOSUNNY   35  28  75 NE3       30.41S
$$

ALZ012-013-022-023-030>036-040>044-061600-
WEST CENTRAL ALABAMA

CITY           SKY/WX    TMP DP  RH WIND       PRES   REMARKS
TUSCALOOSA     MOSUNNY   36  28  73 NE3       30.41S
$$

ALZ015-024>027-033>036-040>044-061600-
CENTRAL ALABAMA

CITY           SKY/WX    TMP DP  RH WIND       PRES   REMARKS
BIRMINGHAM     PTSUNNY   39  23  52 CALM      30.40S
MONTGOMERY     SUNNY     41  24  51 NE5       30.39S
SHELBY CO ARPT MOSUNNY   41  24  51 CALM      30.38S
MAXWELL AFB    SUNNY     41  22  48 N3        30.38R
GREENVILLE     FAIR      41  23  48 N5        30.35F
$$

ALZ019-021-028-029-037-038-045>048-061600-
EAST CENTRAL ALABAMA

CITY           SKY/WX    TMP DP  RH WIND       PRES   REMARKS
ANNISTON       MOSUNNY   35  23  61 NE7       30.40R WCI  29
ALEXANDER CITY SUNNY     38  24  57 N5        30.37S WCI  34
AUBURN         SUNNY     43  21  41 E6        30.37R
$$

ALZ051>064-061600-
SOUTHWEST ALABAMA

CITY           SKY/WX    TMP DP  RH WIND       PRES   REMARKS
MOBILE         MOSUNNY   46  26  45 NE6       30.39R
BROOKLEY FIELD SUNNY     46  29  51 NW7       30.41R
EVERGREEN      SUNNY     43  27  53 CALM      30.38S
$$

ALZ049-050-065>069-061600-
SOUTHEAST ALABAMA

CITY           SKY/WX    TMP DP  RH WIND       PRES   REMARKS
DOTHAN         SUNNY     44  29  55 N3        30.39R
OZARK          SUNNY     44  25  47 VRB3      30.36R
TROY           SUNNY     43  27  53 CALM      30.38R
EUFAULA        FAIR      44  28  53 VRB3      30.36R
$$




USA.gov is the U.S. government's official web portal to all federal, state and local government web resources and services.